Regional Weather Roundup
Issued by NWS Glasgow, MT

Home | Current Version | Previous Version | Text Only | Print | Product List | Glossary On
Versions: 1 2 3 4 5 6 7 8 9 10 11 12 13 14 15 16 17 18 19 20 21 22 23 24 25 26 27 28
000
ASUS45 KGGW 242315
RWRGGW
HOURLY WEATHER ROUNDUP FOR NORTHEAST MONTANA
NATIONAL WEATHER SERVICE GLASGOW MONTANA
500 PM MDT FRI OCT 24 2014

NOTE: "FAIR" INDICATES FEW OR NO CLOUDS BELOW 12,000 FEET WITH NO
SIGNIFICANT WEATHER AND/OR OBSTRUCTIONS TO VISISBILITY.

NORTHEAST MONTANA


CITY           SKY/WX    TMP DP  RH WIND       PRES   REMARKS
GLASGOW        PTCLDY    59  27  29 NW15      30.00R
PLENTYWOOD       N/A     56  25  30 NW13        N/A
WOLF POINT     MOCLDY    61  31  32 W14       30.00R
JORDAN           N/A     58  33  39 W6        30.03R
WINNETT          N/A     56  41  57 S1          N/A
SIDNEY         CLOUDY    61  27  27 W13       30.01S
GLENDIVE       CLOUDY    57  30  35 W9        30.04R
MALTA            N/A     59  30  33 W12         N/A
SCOBEY           N/A     57  23  27 W18       29.96R

FORT PECK REPORTS


CITY           SKY/WX    TMP DP  RH WIND       PRES   REMARKS
FORT PECK        N/A     60  29  30 W21         N/A
THE PINES        N/A     61  26  26 W9G17       N/A

SOUTHEAST MONTANA


CITY           SKY/WX    TMP DP  RH WIND       PRES   REMARKS
BILLINGS       CLOUDY    57  37  47 NE5       30.07R
MILES CITY     CLOUDY    60  32  34 NW8       30.06S
BAKER          CLOUDY    57  30  35 W8        30.06R
LIVINGSTON     CLOUDY    53  39  59 SW9       30.08R

CENTRAL MONTANA


CITY           SKY/WX    TMP DP  RH WIND       PRES   REMARKS
HAVRE          CLOUDY    56  30  37 W14       30.01R
LEWISTOWN      CLOUDY    54  38  54 CALM      30.07R
GREAT FALLS    CLOUDY    54  35  48 SW12      30.04R
CUT BANK       PTSUNNY   51  30  44 W24G32    30.03R
HELENA         PTSUNNY   55  40  56 E8        30.08F
BUTTE          CLOUDY    47  39  74 CALM      30.12F
BOZEMAN        LGT RAIN  49  42  77 NW3       30.12S

WESTERN MONTANA


CITY           SKY/WX    TMP DP  RH WIND       PRES   REMARKS
MISSOULA       LGT RAIN  51  45  79 S5        30.11S
KALISPELL      NOT AVBL

NORTH DAKOTA


CITY           SKY/WX    TMP DP  RH WIND       PRES   REMARKS
WILLISTON      MOCLDY    59  26  28 W15G23    29.96R
DICKINSON      CLOUDY    57  30  35 W12       30.00R
MINOT          CLEAR     61  27  27 W15G23    29.89R
BISMARCK       MOCLDY    64  34  32 W14       29.95R

SOUTHERN SASKATCHEWAN


CITY           SKY/WX    TMP DP  RH WIND       PRES   REMARKS
REGINA         PTCLDY    54  32  43 W18G28    29.89R
MOOSE JAW      PTCLDY    54  34  47 W16       29.92R
ESTEVAN        PTCLDY    57  28  33 W18G25    29.90R
SWIFT CURRENT  CLEAR     52  28  40 W15G21    29.94R




USA.gov is the U.S. government's official web portal to all federal, state and local government web resources and services.